| time (UTC) | temp C | wind direction | speed KPH | gust KPH | rain 1hr cm | rain 24hr cm | rain mn cm | humidity % | barometer mb |
| 20260504050508 | 11 | 267 | 0.0 | 3.2 | 0.00 | 0.00 | 0.00 | 48 | 1006.1 |
| 20260504045505 | 12 | 267 | 0.0 | 3.2 | 0.00 | 0.00 | 0.00 | 47 | 1006.2 |
| 20260504045005 | 12 | 267 | 0.0 | 3.2 | 0.00 | 0.00 | 0.00 | 47 | 1006.3 |
| 20260504044522 | 12 | 267 | 0.0 | 1.6 | 0.00 | 0.00 | 0.00 | 46 | 1006.3 |
| 20260504044007 | 12 | 267 | 0.0 | 0.0 | 0.00 | 0.00 | 0.00 | 46 | 1006.4 |
| 20260504043507 | 12 | 267 | 0.0 | 0.0 | 0.00 | 0.00 | 0.00 | 46 | 1006.4 |
| 20260504043023 | 12 | 267 | 0.0 | 0.0 | 0.00 | 0.00 | 0.00 | 46 | 1006.5 |
| 20260504042509 | 12 | 267 | 0.0 | 0.0 | 0.00 | 0.00 | 0.00 | 46 | 1006.6 |
| 20260504042009 | 12 | 267 | 0.0 | 0.0 | 0.00 | 0.00 | 0.00 | 46 | 1006.6 |
| 20260504041527 | 12 | 267 | 0.0 | 0.0 | 0.00 | 0.00 | 0.00 | 46 | 1006.7 |
| 20260504041009 | 12 | 267 | 0.0 | 1.6 | 0.00 | 0.00 | 0.00 | 46 | 1006.7 |
| 20260504040509 | 12 | 360 | 0.0 | 1.6 | 0.00 | 0.00 | 0.00 | 45 | 1006.7 |
| 20260504040031 | 13 | 360 | 0.0 | 3.2 | 0.00 | 0.00 | 0.00 | 45 | 1006.7 |
| 20260504035513 | 13 | 265 | 0.0 | 3.2 | 0.00 | 0.00 | 0.00 | 44 | 1006.8 |
| 20260504035010 | 13 | 360 | 0.0 | 3.2 | 0.00 | 0.00 | 0.00 | 43 | 1006.9 |
| 20260504034529 | 13 | 325 | 0.0 | 3.2 | 0.00 | 0.00 | 0.00 | 42 | 1007.0 |
| 20260504034007 | 13 | 311 | 0.0 | 3.2 | 0.00 | 0.00 | 0.00 | 42 | 1007.0 |
| 20260504033506 | 13 | 360 | 0.0 | 3.2 | 0.00 | 0.00 | 0.00 | 42 | 1007.0 |
| 20260504033036 | 14 | 360 | 0.0 | 3.2 | 0.00 | 0.00 | 0.00 | 42 | 1007.1 |
| 20260504032509 | 14 | 360 | 0.0 | 3.2 | 0.00 | 0.00 | 0.00 | 42 | 1007.2 |
| 20260504032012 | 14 | 360 | 0.0 | 3.2 | 0.00 | 0.00 | 0.00 | 42 | 1007.2 |
| 20260504031529 | 14 | 360 | 0.0 | 3.2 | 0.00 | 0.00 | 0.00 | 42 | 1007.2 |
| 20260504031007 | 14 | 360 | 1.6 | 3.2 | 0.00 | 0.00 | 0.00 | 42 | 1007.2 |
| 20260504030510 | 14 | 360 | 0.0 | 3.2 | 0.00 | 0.00 | 0.00 | 41 | 1007.2 |
| 20260504030025 | 15 | 360 | 1.6 | 4.8 | 0.00 | 0.00 | 0.00 | 41 | 1007.2 |
| 20260504025507 | 15 | 360 | 1.6 | 4.8 | 0.00 | 0.00 | 0.00 | 41 | 1007.2 |
| 20260504025010 | 15 | 360 | 1.6 | 4.8 | 0.00 | 0.00 | 0.00 | 41 | 1007.1 |
| 20260504024541 | 15 | 360 | 1.6 | 4.8 | 0.00 | 0.00 | 0.00 | 41 | 1007.2 |
| 20260504024009 | 15 | 360 | 1.6 | 4.8 | 0.00 | 0.00 | 0.00 | 41 | 1007.1 |
| 20260504023510 | 15 | 313 | 0.0 | 4.8 | 0.00 | 0.00 | 0.00 | 41 | 1007.0 |
| 20260504023018 | 15 | 298 | 3.2 | 4.8 | 0.00 | 0.00 | 0.00 | 40 | 1007.0 |
| 20260504022507 | 15 | 306 | 1.6 | 4.8 | 0.00 | 0.00 | 0.00 | 40 | 1007.0 |
| 20260504022014 | 15 | 304 | 1.6 | 4.8 | 0.00 | 0.00 | 0.00 | 40 | 1007.0 |
| 20260504021521 | 15 | 294 | 1.6 | 4.8 | 0.00 | 0.00 | 0.00 | 39 | 1007.0 |
| 20260504021008 | 15 | 288 | 1.6 | 6.4 | 0.00 | 0.00 | 0.00 | 39 | 1007.0 |
| 20260504020506 | 16 | 312 | 3.2 | 6.4 | 0.00 | 0.00 | 0.00 | 39 | 1006.9 |
| 20260504020026 | 16 | 300 | 1.6 | 4.8 | 0.00 | 0.00 | 0.00 | 38 | 1006.8 |
| 20260504015510 | 16 | 308 | 3.2 | 4.8 | 0.00 | 0.00 | 0.00 | 38 | 1006.8 |
| 20260504015009 | 16 | 304 | 3.2 | 4.8 | 0.00 | 0.00 | 0.00 | 38 | 1006.8 |
| 20260504014525 | 16 | 287 | 3.2 | 6.4 | 0.00 | 0.00 | 0.00 | 38 | 1006.8 |
| 20260504014014 | 17 | 279 | 3.2 | 6.4 | 0.00 | 0.00 | 0.00 | 37 | 1006.8 |
| 20260504013510 | 17 | 292 | 3.2 | 6.4 | 0.00 | 0.00 | 0.00 | 37 | 1006.8 |
| 20260504013030 | 17 | 286 | 4.8 | 6.4 | 0.00 | 0.00 | 0.00 | 35 | 1006.7 |
| 20260504012510 | 17 | 281 | 4.8 | 8.0 | 0.00 | 0.00 | 0.00 | 35 | 1006.6 |
| 20260504012006 | 18 | 290 | 4.8 | 9.7 | 0.00 | 0.00 | 0.00 | 35 | 1006.6 |
| 20260504011517 | 18 | 284 | 4.8 | 9.7 | 0.00 | 0.00 | 0.00 | 35 | 1006.7 |
| 20260504011006 | 18 | 286 | 4.8 | 9.7 | 0.00 | 0.00 | 0.00 | 34 | 1006.6 |
| 20260504010510 | 19 | 276 | 4.8 | 9.7 | 0.00 | 0.00 | 0.00 | 33 | 1006.5 |
| 20260504010007 | 20 | 286 | 4.8 | 9.7 | 0.00 | 0.00 | 0.00 | 33 | 1006.4 |
| 20260504005504 | 20 | 273 | 3.2 | 9.7 | 0.00 | 0.00 | 0.00 | 31 | 1006.5 |
| 20260504005003 | 21 | 284 | 4.8 | 9.7 | 0.00 | 0.00 | 0.00 | 30 | 1006.5 |
| 20260504004518 | 21 | 300 | 4.8 | 9.7 | 0.00 | 0.00 | 0.00 | 29 | 1006.5 |
| 20260504004007 | 21 | 296 | 4.8 | 9.7 | 0.00 | 0.00 | 0.00 | 29 | 1006.4 |
| 20260504003507 | 21 | 277 | 3.2 | 9.7 | 0.00 | 0.00 | 0.00 | 28 | 1006.4 |
| 20260504003016 | 22 | 292 | 3.2 | 11.3 | 0.00 | 0.00 | 0.00 | 28 | 1006.4 |
| 20260504002506 | 22 | 268 | 4.8 | 11.3 | 0.00 | 0.00 | 0.00 | 27 | 1006.4 |
| 20260504002006 | 22 | 315 | 4.8 | 14.5 | 0.00 | 0.00 | 0.00 | 27 | 1006.4 |
| 20260504001522 | 22 | 287 | 3.2 | 20.9 | 0.00 | 0.00 | 0.00 | 26 | 1006.2 |
| 20260504001010 | 22 | 291 | 8.0 | 24.1 | 0.00 | 0.00 | 0.00 | 25 | 1006.2 |
| 20260504000507 | 22 | 341 | 12.9 | 24.1 | 0.00 | 0.00 | 0.00 | 25 | 1006.2 |
| 20260504000021 | 22 | 261 | 12.9 | 20.9 | 0.00 | 0.00 | 0.00 | 25 | 1006.3 |
| 20260503235506 | 22 | 276 | 12.9 | 20.9 | 0.00 | 0.00 | 0.00 | 24 | 1006.4 |
| 20260503235003 | 23 | 314 | 8.0 | 20.9 | 0.00 | 0.00 | 0.00 | 25 | 1006.4 |
| 20260503234511 | 23 | 279 | 9.7 | 24.1 | 0.00 | 0.00 | 0.00 | 25 | 1006.3 |
| 20260503234003 | 23 | 273 | 14.5 | 20.9 | 0.00 | 0.00 | 0.00 | 24 | 1006.2 |
| 20260503233502 | 23 | 281 | 8.0 | 17.7 | 0.00 | 0.00 | 0.00 | 25 | 1006.2 |
| 20260503233011 | 23 | 266 | 6.4 | 14.5 | 0.00 | 0.00 | 0.00 | 25 | 1006.2 |
| 20260503232506 | 23 | 323 | 6.4 | 14.5 | 0.00 | 0.00 | 0.00 | 24 | 1006.1 |
| 20260503232006 | 23 | 236 | 4.8 | 19.3 | 0.00 | 0.00 | 0.00 | 24 | 1006.2 |
| 20260503231516 | 23 | 298 | 8.0 | 25.7 | 0.00 | 0.00 | 0.00 | 24 | 1006.1 |
| 20260503231010 | 23 | 302 | 16.1 | 25.7 | 0.00 | 0.00 | 0.00 | 23 | 1006.2 |
| 20260503230507 | 24 | 273 | 6.4 | 20.9 | 0.00 | 0.00 | 0.00 | 24 | 1006.1 |
| 20260503230022 | 24 | 341 | 3.2 | 22.5 | 0.00 | 0.00 | 0.00 | 23 | 1006.1 |
| 20260503225506 | 24 | 305 | 6.4 | 22.5 | 0.00 | 0.00 | 0.00 | 23 | 1006.1 |
| 20260503225008 | 24 | 300 | 14.5 | 22.5 | 0.00 | 0.00 | 0.00 | 23 | 1006.1 |
| 20260503224524 | 24 | 270 | 9.7 | 22.5 | 0.00 | 0.00 | 0.00 | 22 | 1006.1 |
| 20260503224005 | 24 | 337 | 3.2 | 19.3 | 0.00 | 0.00 | 0.00 | 23 | 1006.1 |
| 20260503223503 | 24 | 325 | 8.0 | 19.3 | 0.00 | 0.00 | 0.00 | 24 | 1006.1 |
| 20260503223010 | 25 | 264 | 4.8 | 20.9 | 0.00 | 0.00 | 0.00 | 23 | 1006.0 |
| 20260503222503 | 25 | 5 | 8.0 | 20.9 | 0.00 | 0.00 | 0.00 | 25 | 1006.0 |
| 20260503222007 | 25 | 267 | 8.0 | 20.9 | 0.00 | 0.00 | 0.00 | 23 | 1006.0 |
| 20260503221516 | 25 | 245 | 4.8 | 14.5 | 0.00 | 0.00 | 0.00 | 24 | 1005.9 |
| 20260503221006 | 24 | 279 | 4.8 | 20.9 | 0.00 | 0.00 | 0.00 | 23 | 1005.9 |
| 20260503220508 | 24 | 277 | 8.0 | 20.9 | 0.00 | 0.00 | 0.00 | 23 | 1006.0 |
| 20260503220022 | 25 | 352 | 6.4 | 16.1 | 0.00 | 0.00 | 0.00 | 24 | 1005.9 |
| 20260503215509 | 25 | 311 | 6.4 | 16.1 | 0.00 | 0.00 | 0.00 | 25 | 1006.0 |
| 20260503215006 | 24 | 306 | 4.8 | 17.7 | 0.00 | 0.00 | 0.00 | 24 | 1006.0 |
| 20260503214525 | 24 | 302 | 4.8 | 30.6 | 0.00 | 0.00 | 0.00 | 24 | 1005.9 |
| 20260503214009 | 24 | 287 | 12.9 | 30.6 | 0.00 | 0.00 | 0.00 | 23 | 1005.9 |
| 20260503213507 | 24 | 286 | 19.3 | 30.6 | 0.00 | 0.00 | 0.00 | 24 | 1005.9 |
| 20260503213016 | 24 | 279 | 14.5 | 25.7 | 0.00 | 0.00 | 0.00 | 24 | 1006.0 |
| 20260503212504 | 24 | 333 | 11.3 | 25.7 | 0.00 | 0.00 | 0.00 | 25 | 1006.1 |
| 20260503212007 | 24 | 279 | 12.9 | 27.4 | 0.00 | 0.00 | 0.00 | 24 | 1006.1 |
| 20260503211515 | 24 | 273 | 8.0 | 27.4 | 0.00 | 0.00 | 0.00 | 27 | 1006.1 |
| 20260503211006 | 25 | 239 | 6.4 | 22.5 | 0.00 | 0.00 | 0.00 | 27 | 1006.1 |
| 20260503210506 | 25 | 296 | 8.0 | 20.9 | 0.00 | 0.00 | 0.00 | 26 | 1006.1 |
| 20260503210018 | 24 | 321 | 6.4 | 20.9 | 0.00 | 0.00 | 0.00 | 26 | 1006.1 |
| 20260503205506 | 24 | 295 | 6.4 | 27.4 | 0.00 | 0.00 | 0.00 | 27 | 1006.1 |
| 20260503205006 | 25 | 279 | 9.7 | 27.4 | 0.00 | 0.00 | 0.00 | 26 | 1006.2 |
| 20260503204521 | 24 | 296 | 14.5 | 25.7 | 0.00 | 0.00 | 0.00 | 26 | 1006.1 |
| 20260503204009 | 25 | 264 | 8.0 | 20.9 | 0.00 | 0.00 | 0.00 | 26 | 1006.1 |
| 20260503203508 | 25 | 305 | 8.0 | 17.7 | 0.00 | 0.00 | 0.00 | 26 | 1006.3 |
| 20260503203023 | 25 | 323 | 8.0 | 25.7 | 0.00 | 0.00 | 0.00 | 26 | 1006.3 |
| 20260503202507 | 25 | 214 | 8.0 | 25.7 | 0.00 | 0.00 | 0.00 | 28 | 1006.4 |
| 20260503202012 | 25 | 321 | 6.4 | 22.5 | 0.00 | 0.00 | 0.00 | 28 | 1006.4 |
| 20260503201512 | 25 | 313 | 8.0 | 22.5 | 0.00 | 0.00 | 0.00 | 28 | 1006.4 |
| 20260503201004 | 25 | 350 | 8.0 | 25.7 | 0.00 | 0.00 | 0.00 | 28 | 1006.5 |
| 20260503200507 | 24 | 342 | 12.9 | 30.6 | 0.00 | 0.00 | 0.00 | 28 | 1006.5 |
| 20260503200019 | 24 | 333 | 12.9 | 30.6 | 0.00 | 0.00 | 0.00 | 27 | 1006.5 |
| 20260503195507 | 24 | 301 | 9.7 | 29.0 | 0.00 | 0.00 | 0.00 | 27 | 1006.5 |
| 20260503195007 | 24 | 275 | 8.0 | 29.0 | 0.00 | 0.00 | 0.00 | 28 | 1006.4 |
| 20260503194523 | 24 | 256 | 9.7 | 27.4 | 0.00 | 0.00 | 0.00 | 28 | 1006.4 |
| 20260503194009 | 24 | 298 | 14.5 | 27.4 | 0.00 | 0.00 | 0.00 | 27 | 1006.5 |
| 20260503193510 | 25 | 346 | 11.3 | 17.7 | 0.00 | 0.00 | 0.00 | 28 | 1006.4 |
| 20260503193035 | 25 | 331 | 8.0 | 20.9 | 0.00 | 0.00 | 0.00 | 28 | 1006.5 |
| 20260503192509 | 24 | 321 | 9.7 | 20.9 | 0.00 | 0.00 | 0.00 | 29 | 1006.4 |
| 20260503192008 | 24 | 313 | 9.7 | 25.7 | 0.00 | 0.00 | 0.00 | 29 | 1006.4 |
| 20260503191526 | 24 | 279 | 12.9 | 33.8 | 0.00 | 0.00 | 0.00 | 30 | 1006.4 |
| 20260503191009 | 24 | 287 | 20.9 | 37.0 | 0.00 | 0.00 | 0.00 | 27 | 1006.4 |
| 20260503190506 | 24 | 298 | 16.1 | 37.0 | 0.00 | 0.00 | 0.00 | 28 | 1006.4 |
| 20260503190025 | 24 | 331 | 8.0 | 22.5 | 0.00 | 0.00 | 0.00 | 28 | 1006.4 |
| 20260503185507 | 23 | 236 | 11.3 | 19.3 | 0.00 | 0.00 | 0.00 | 29 | 1006.4 |
| 20260503185007 | 23 | 5 | 9.7 | 30.6 | 0.00 | 0.00 | 0.00 | 29 | 1006.6 |
| 20260503184521 | 23 | 281 | 12.9 | 30.6 | 0.00 | 0.00 | 0.00 | 30 | 1006.5 |
| 20260503184008 | 23 | 251 | 11.3 | 24.1 | 0.00 | 0.00 | 0.00 | 29 | 1006.6 |
| 20260503183510 | 23 | 288 | 12.9 | 27.4 | 0.00 | 0.00 | 0.00 | 29 | 1006.5 |
| 20260503183023 | 23 | 244 | 8.0 | 27.4 | 0.00 | 0.00 | 0.00 | 30 | 1006.6 |
| 20260503182514 | 23 | 291 | 6.4 | 25.7 | 0.00 | 0.00 | 0.00 | 32 | 1006.8 |
| 20260503182016 | 23 | 271 | 14.5 | 27.4 | 0.00 | 0.00 | 0.00 | 32 | 1006.8 |
| 20260503181526 | 23 | 299 | 14.5 | 27.4 | 0.00 | 0.00 | 0.00 | 33 | 1006.8 |
| 20260503181014 | 23 | 276 | 16.1 | 27.4 | 0.00 | 0.00 | 0.00 | 33 | 1006.8 |
| 20260503180511 | 22 | 271 | 14.5 | 27.4 | 0.00 | 0.00 | 0.00 | 32 | 1006.8 |
| 20260503180026 | 22 | 274 | 12.9 | 25.7 | 0.00 | 0.00 | 0.00 | 35 | 1006.9 |
| 20260503175504 | 22 | 277 | 14.5 | 24.1 | 0.00 | 0.00 | 0.00 | 34 | 1007.0 |
| 20260503175006 | 22 | 264 | 14.5 | 25.7 | 0.00 | 0.00 | 0.00 | 35 | 1007.0 |
| 20260503174524 | 22 | 246 | 8.0 | 25.7 | 0.00 | 0.00 | 0.00 | 36 | 1007.1 |
| 20260503174006 | 22 | 271 | 14.5 | 22.5 | 0.00 | 0.00 | 0.00 | 36 | 1007.1 |
| 20260503173508 | 21 | 225 | 12.9 | 22.5 | 0.00 | 0.00 | 0.00 | 35 | 1007.2 |
| 20260503173022 | 22 | 327 | 8.0 | 22.5 | 0.00 | 0.00 | 0.00 | 38 | 1007.2 |
| 20260503172506 | 21 | 320 | 6.4 | 22.5 | 0.00 | 0.00 | 0.00 | 37 | 1007.3 |
| 20260503172010 | 21 | 275 | 6.4 | 25.7 | 0.00 | 0.00 | 0.00 | 37 | 1007.3 |
| 20260503171526 | 21 | 264 | 12.9 | 25.7 | 0.00 | 0.00 | 0.00 | 36 | 1007.4 |
| 20260503171012 | 21 | 247 | 6.4 | 17.7 | 0.00 | 0.00 | 0.00 | 38 | 1007.4 |
| 20260503170510 | 20 | 194 | 9.7 | 22.5 | 0.00 | 0.00 | 0.00 | 38 | 1007.5 |
| 20260503151009 | 16 | 290 | 9.7 | 20.9 | 0.00 | 0.00 | 0.00 | 44 | 1008.4 |
| 20260503150510 | 16 | 277 | 6.4 | 24.1 | 0.00 | 0.00 | 0.00 | 44 | 1008.5 |
| 20260503131004 | 12 | 360 | 17.7 | 25.7 | 0.00 | 0.00 | 0.00 | 51 | 1009.8 |
| 20260503130502 | 12 | 360 | 16.1 | 25.7 | 0.00 | 0.00 | 0.00 | 51 | 1009.9 |
| 20260503110512 | 11 | 360 | 6.4 | 14.5 | 0.00 | 0.00 | 0.00 | 51 | 1010.8 |
| 20260503090506 | 10 | 360 | 1.6 | 4.8 | 0.00 | 0.00 | 0.00 | 55 | 1012.3 |
| 20260503081509 | 10 | 360 | 4.8 | 12.9 | 0.00 | 0.00 | 0.00 | 53 | 1013.0 |
| 20260503081002 | 11 | 360 | 6.4 | 12.9 | 0.00 | 0.00 | 0.00 | 50 | 1012.8 |
| 20260503080506 | 11 | 360 | 6.4 | 9.7 | 0.00 | 0.00 | 0.00 | 50 | 1013.0 |
| 20260503072507 | 11 | 360 | 8.0 | 14.5 | 0.00 | 0.00 | 0.00 | 50 | 1013.4 |
| 20260503072009 | 11 | 360 | 1.6 | 8.0 | 0.00 | 0.00 | 0.00 | 51 | 1013.5 |
| 20260503071511 | 11 | 360 | 3.2 | 9.7 | 0.00 | 0.00 | 0.00 | 50 | 1013.3 |
| 20260503071002 | 11 | 360 | 4.8 | 12.9 | 0.00 | 0.00 | 0.00 | 50 | 1013.4 |
| 20260503070502 | 11 | 360 | 4.8 | 14.5 | 0.00 | 0.00 | 0.00 | 50 | 1013.4 |